Regional Weather Roundup
Issued by NWS

Home | Current Version | Previous Version | Graphics & Text | Print | Product List | Glossary On
Versions: 1 2 3 4 5 6 7 8 9 10 11 12 13 14 15 16 17 18 19 20 21 22 23 24 25 26 27 28 29 30 31 32 33 34 35 36 37 38 39 40 41 42 43 44 45 46 47 48 49 50
526
ASUS43 KDTX 270001
RWRMI
MICHIGAN HOURLY REGIONAL WEATHER ROUNDUP
NATIONAL WEATHER SERVICE DETROIT/PONTIAC MI
800 PM EDT SUN MAR 26 2017

NOTE: "FAIR" INDICATES FEW OR NO CLOUDS BELOW 12,000 FEET WITH NO
SIGNIFICANT WEATHER AND/OR OBSTRUCTION TO VISIBILITY.

MIZ047>049-052>055-059>063-066>070-074>076-081>083-270100-
SOUTHEAST LOWER MICHIGAN

CITY           SKY/WX    TMP DP  RH WIND       PRES   REMARKS
ADRIAN         RAIN      50  50 100 E3        29.89S FOG
6HR MIN TEMP:  44; 6HR MAX TEMP:  53; 6HR PCP:  0.08;

ALMA           FOG       47  47 100 N10       29.87S VSB 1
6HR MIN TEMP:  44; 6HR MAX TEMP:  49;

ANN ARBOR      CLOUDY    50  50 100 CALM      29.88F FOG
BAD AXE        CLOUDY    46  46  97 SE6       29.89S FOG
6HR MIN TEMP:  43; 6HR MAX TEMP:  47;

CARO           CLOUDY    49  49  99 S3        29.87S FOG
DETROIT CITY   CLOUDY    47  47 100 CALM      29.90S FOG
6HR MIN TEMP:  45; 6HR MAX TEMP:  48; 6HR PCP:  0.07;

DETROIT        LGT RAIN  51  50  96 SE3       29.90S FOG
6HR MIN TEMP:  47; 6HR MAX TEMP:  52; 6HR PCP:  0.08;

FLINT          CLOUDY    51  49  92 S5        29.88S FOG
6HR MIN TEMP:  46; 6HR MAX TEMP:  52; 6HR PCP:  0.11;

GROSSE ILE     LGT RAIN  43  42  97 S6        29.89S VSB 3/4
6HR MIN TEMP:  42; 6HR MAX TEMP:  50; 6HR PCP:  0.06;

HILLSDALE      LGT RAIN  52  50  93 S3        29.87R
HOWELL         CLOUDY    51  49  92 S6        29.87F FOG
6HR MIN TEMP:  47; 6HR MAX TEMP:  51;


CITY           SKY/WX    TMP DP  RH WIND       PRES   REMARKS
JACKSON        CLOUDY    53  51  93 SE9       29.87S
6HR MIN TEMP:  48; 6HR MAX TEMP:  56; 6HR PCP:  0.01;

LAMBERTVILLE   CLOUDY    50  48  93 CALM      29.88F FOG
6HR MIN TEMP:  45; 6HR MAX TEMP:  51;

LANSING        CLOUDY    53  49  86 SE5       29.86S
6HR MIN TEMP:  46; 6HR MAX TEMP:  55; 6HR PCP:  0.05;

LAPEER         CLOUDY    49  48  98 CALM      29.88F FOG
6HR MIN TEMP:  46; 6HR MAX TEMP:  50; 6HR PCP:  0.05;

MASON          CLOUDY    52  51  95 SE6       29.87S
MONROE         CLOUDY    48  48 100 W6        29.88F FOG
6HR MIN TEMP:  43; 6HR MAX TEMP:  49; 6HR PCP:  0.14;

MT. CLEMENS    DRZL/FOG  47  47 100 SE6       29.88S VSB 1/4
6HR MIN TEMP:  44; 6HR MAX TEMP:  48; 6HR PCP:  0.25;

PONTIAC        LGT RAIN  48  46  93 SE3       29.88S FOG
6HR MIN TEMP:  45; 6HR MAX TEMP:  50; 6HR PCP:  0.04;

PORT HOPE        N/A     45  44  97 SE8       29.87S
6HR MIN TEMP:  35; 6HR MAX TEMP:  45; 6HR PCP:  0.17;

TRI CITIES     CLOUDY    43  43 100 NE6       29.87F FOG
6HR MIN TEMP:  41; 6HR MAX TEMP:  44; 6HR PCP:  0.09;

MIDLAND        CLOUDY    44  43  95 CALM      29.87S FOG
6HR MIN TEMP:  40; 6HR MAX TEMP:  45; 6HR PCP:  0.03;

TROY           CLOUDY    47  46  93 E3        29.91S FOG
SAGINAW HB     CLOUDY    46  43  87 N3        29.87S FOG
$$
MIZ043>046-050>051-056>058-064>065-071>073-077>080-270100-
SOUTHWEST LOWER MICHIGAN

CITY           SKY/WX    TMP DP  RH WIND       PRES   REMARKS
BATTLE CREEK   MOCLDY    53  52  96 S6        29.86R
6HR MIN TEMP:  51; 6HR MAX TEMP:  56; 6HR PCP:  0.16;

BENTON HARBOR  CLOUDY    57  54  89 SW3       29.84R
6HR MIN TEMP:  56; 6HR MAX TEMP:  58; 6HR PCP:  0.24;

BIG RAPIDS     FOG       44  43  95 CALM      29.84F VSB 1/2
6HR MIN TEMP:  41; 6HR MAX TEMP:  45; 6HR PCP:  0.12;

COLDWATER      CLOUDY    55  55 100 SE5       29.86R FOG
6HR MIN TEMP:  50; 6HR MAX TEMP:  57;

FREMONT        DRIZZLE   47  47 100 E3        29.83S
HOLLAND        CLOUDY    56  54  93 CALM      29.83S
6HR MIN TEMP:  50; 6HR MAX TEMP:  57; 6HR PCP:  0.01;

GRAND RAPIDS   LGT RAIN  53  53 100 CALM      29.84S FOG
6HR MIN TEMP:  47; 6HR MAX TEMP:  54; 6HR PCP: TRACE;

IONIA          CLOUDY    51  51  98 E5        29.84S FOG
6HR MIN TEMP:  46; 6HR MAX TEMP:  51;

KALAMAZOO      CLOUDY    54  51  90 S3        29.85S FOG
6HR MIN TEMP:  52; 6HR MAX TEMP:  56; 6HR PCP:  0.10;

LUDINGTON      FOG       46  46 100 SE3       29.83S VSB 1
6HR MIN TEMP:  45; 6HR MAX TEMP:  47; 6HR PCP:  0.05;

MARSHALL       CLOUDY    54  53  98 CALM      29.86S FOG
6HR MIN TEMP:  51; 6HR MAX TEMP:  57; 6HR PCP:  0.04;

MOUNT PLEASANT FOG       44  43  97 CALM      29.86S VSB 1
6HR MIN TEMP:  40; 6HR MAX TEMP:  44; 6HR PCP:  0.03;

MUSKEGON       FOG       51  50  96 E5        29.84R VSB 1
6HR MIN TEMP:  48; 6HR MAX TEMP:  52; 6HR PCP:  0.01;

SOUTH HAVEN    CLOUDY    55  55  97 S3        29.83R
$$
MIZ016>042-270100-
NORTHERN LOWER MICHIGAN

CITY           SKY/WX    TMP DP  RH WIND       PRES   REMARKS
ALPENA         LGT RAIN  37  37 100 SE6       29.91S FOG     WCI  32
6HR MIN TEMP:  36; 6HR MAX TEMP:  39; 6HR PCP:  0.31;

BEAVER ISLAND  DRIZZLE   34  34 100 E8        29.88R WCI  28
6HR MIN TEMP:  34; 6HR MAX TEMP:  36;

BELLAIRE       CLOUDY    44  42  93 CALM      29.87S
6HR MIN TEMP:  43; 6HR MAX TEMP:  45;

CADILLAC       CLOUDY    43  42  97 SE3       29.84S FOG
CHARLEVOIX     CLOUDY    40  40 100 E5        29.89S FOG
FRANKFORT      DRIZZLE   46  44  92 CALM      29.84S
GAYLORD        CLOUDY    42  38  85 SE5       29.85S FOG
6HR MIN TEMP:  40; 6HR MAX TEMP:  43; 6HR PCP:  0.03;

GRAYLING       CLOUDY    41  41 100 SE3       29.87S FOG
HARBOR SPRINGS DRIZZLE   37  37 100 E10       29.87F WCI  30
HOUGHTON LAKE  CLOUDY    41  40  96 E3        29.86F FOG
6HR MIN TEMP:  39; 6HR MAX TEMP:  42; 6HR PCP:  0.14;

MANISTEE       CLOUDY    46  45  96 E3        29.84R FOG
OSCODA         MIX PCPN  38  37  97 CALM      29.88F
6HR MIN TEMP:  37; 6HR MAX TEMP:  38; 6HR PCP:  0.11;

PELLSTON       LGT RAIN  36  34  92 E6        29.89S WCI  31
6HR MIN TEMP:  36; 6HR MAX TEMP:  38; 6HR PCP:  0.02;

ROGERS CITY    MIX PCPN  37  35  94 SE3       29.91S
TRAVERSE CITY  CLOUDY    45  43  93 CALM      29.84S FOG
6HR MIN TEMP:  45; 6HR MAX TEMP:  48; 6HR PCP:  0.05;

$$
MIZ007>008-015-270100-
EASTERN UPPER MICHIGAN

CITY           SKY/WX    TMP DP  RH WIND       PRES   REMARKS
KINROSS        MIX PCPN N/A N/A N/A SE15      29.91S
                                      6HR PCP:  0.03;

MACKINAC ISLAN LGT SNOW  33  33 100 E12G20    29.89F WCI  25
6HR MIN TEMP:  33; 6HR MAX TEMP:  33; 6HR PCP:  0.01;

NEWBERRY       FOG       32  32  99 E5        29.88F VSB 1/2 WCI  28
6HR MIN TEMP:  32; 6HR MAX TEMP:  34;

S. S. MARIE    LGT RAIN  34  32  92 SE8       29.92R WCI  27
6HR MIN TEMP:  34; 6HR MAX TEMP:  34; 6HR PCP:  0.02;

MUNISING         N/A     36  35  96 CALM      29.89F
6HR MIN TEMP:  34; 6HR MAX TEMP:  37; 6HR PCP:  0.05;

$$
MIZ004>006-011>014-085-270100-
CENTRAL UPPER MICHIGAN

CITY           SKY/WX    TMP DP  RH WIND       PRES   REMARKS
MANISTIQUE     LGT RAIN  34  32  93 NE5       29.88S WCI  30
ESCANABA       MIX PCPN  35  35 100 N6        29.87F VSB 1   WCI  30
6HR MIN TEMP:  35; 6HR MAX TEMP:  37; 6HR PCP:  0.02;

MENOMINEE        N/A    N/A N/A N/A MISG        N/A
SAWYER-GWINN   CLOUDY    32  32 100 N3        29.88F FOG
$$
MIZ001>003-009>011-084-270100-
WESTERN UPPER MICHIGAN

CITY           SKY/WX    TMP DP  RH WIND       PRES   REMARKS
IRON MOUNTAIN  LGT RAIN  37  34  89 N5        29.86F FOG     WCI  33
6HR MIN TEMP:  34; 6HR MAX TEMP:  37; 6HR PCP: TRACE;

HOUGHTON       MIX PCPN  34  32  92 CALM      29.90S VSB 3/4
6HR MIN TEMP:  33; 6HR MAX TEMP:  35; 6HR PCP:  0.02;

COPPER HARBOR    N/A     34  34 100 CALM      29.92R
6HR MIN TEMP:  34; 6HR MAX TEMP:  35; 6HR PCP:  0.02;

IRONWOOD       CLOUDY    33  31  92 N5        29.92R WCI  29
6HR MIN TEMP:  33; 6HR MAX TEMP:  40;

$$

ABBREVIATIONS USED IN REMARKS
   TC - TEMPERATURE IN CELSIUS
  WCI - WIND CHILL INDEX
   HX - HEAT INDEX
  VSB - VISIBILITY





USA.gov is the U.S. government's official web portal to all federal, state and local government web resources and services.